Home > Time Zones > World Clock > Weather > Russia > Ufa > Past weeks

Flag for Russia Weather past 2 weeks in Ufa, Russia

Now
81 °F

Partly sunny.


Feels Like: 82 °F
Forecast: 58 / 71 °F
Wind: 6 mph from Northwest

Location: Ufa

Current Time: Jul 31, 2014 at 4:33:59 PM

Latest Report: Jul 31, 2014 at 4:00 PM


Visibility: N/A

Pressure: 29.89 "Hg

Humidity: 54%

Dew point: 63 °F

Location of UfaLocation

Historic Weather in Ufa — Graph

°F

Ufa temperature yesterday

Maximum temperature yesterday: 75 °F (at 3:00 PM)
Minimum temperature yesterday: 46 °F (at 6:00 AM)
Average temperature yesterday: 62 °F

Past Weeks' High & Low Weather Summary

 TemperatureHumidityPressure
High84 °F (Jul 16, 4:30 PM)100% (Jul 18, 7:00 AM)30.09 "Hg (Jul 18, 7:00 AM)
Low41 °F (Jul 19, 4:30 AM)33% (Jul 24, 6:00 PM)29.50 "Hg (Jul 23, 8:30 AM)
Average58 °F75%29.82 "Hg
* Reported Jul 16 3:00 PM — Jul 31 3:30 PM, Ufa, Weather by CustomWeather, © 2014

Note: Actual official high and low records may vary slightly from our data, if they occured in-between our weather recording intervals... More about our weather records

Advertising

Ufa weather history for previous 24 hours

 ConditionsComfort  
Time TempWeatherWind HumidityBarometerVisibility
3:30 PM
Jul 31
75 °FPartly sunny.8 mph65%29.89 "HgN/A
3:00 PM79 °FPartly sunny.8 mph58%29.89 "HgN/A
2:30 PM79 °FPartly sunny.3 mph58%29.89 "HgN/A
2:00 PM77 °FBroken clouds.8 mph61%29.89 "HgN/A
1:30 PM75 °FBroken clouds.6 mph65%29.89 "HgN/A
1:00 PM75 °FPartly sunny.8 mph65%29.89 "HgN/A
12:30 PM72 °FPartly sunny.10 mph73%29.89 "HgN/A
12:00 PM70 °FOvercast.10 mph73%29.89 "HgN/A
11:30 AM68 °FOvercast.10 mph78%29.89 "HgN/A
11:00 AM66 °FOvercast.8 mph83%29.89 "HgN/A
10:30 AM66 °FOvercast.10 mph83%29.89 "HgN/A
10:00 AM66 °FOvercast.6 mph83%29.89 "HgN/A
9:30 AM64 °FOvercast.6 mph88%29.89 "HgN/A
8:30 AM64 °FOvercast.3 mph88%29.89 "HgN/A
8:00 AM64 °FOvercast.8 mph88%29.89 "HgN/A
7:30 AM64 °FOvercast.3 mph83%29.89 "HgN/A
7:00 AM63 °FOvercast.3 mph88%29.89 "HgN/A
6:30 AM63 °FOvercast.10 mph88%29.89 "HgN/A
6:00 AM64 °FSprinkles. Overcast.13 mph83%29.89 "HgN/A
5:30 AM64 °FOvercast.10 mph83%29.89 "HgN/A
5:00 AM66 °FOvercast.10 mph78%29.89 "HgN/A
4:30 AM64 °FPassing clouds.8 mph83%29.89 "HgN/A
4:00 AM64 °FPassing clouds.8 mph83%29.89 "HgN/A
3:30 AM64 °FSprinkles. Passing clouds.8 mph83%29.89 "HgN/A
3:00 AM66 °FPassing clouds.8 mph78%29.89 "HgN/A
2:30 AM66 °FPassing clouds.13 mph78%29.89 "HgN/A
2:00 AM66 °FPassing clouds.13 mph78%29.92 "HgN/A
1:30 AM66 °FPassing clouds.10 mph78%29.92 "HgN/A
1:00 AM66 °FPassing clouds.8 mph78%29.92 "HgN/A
12:30 AM66 °FPassing clouds.10 mph68%29.92 "HgN/A
11:30 PM
Jul 30
66 °FThundershowers. Passing clouds.10 mph73%29.92 "HgN/A
11:00 PM68 °FThundershowers. Passing clouds.10 mph73%29.95 "HgN/A
10:30 PM68 °FPassing clouds.10 mph73%29.92 "HgN/A
10:00 PM70 °FPartly sunny.8 mph69%29.92 "HgN/A
9:30 PM72 °FBroken clouds.10 mph69%29.92 "HgN/A
9:00 PM73 °FBroken clouds.10 mph65%29.92 "HgN/A
8:30 PM73 °FBroken clouds.10 mph61%29.92 "HgN/A
8:00 PM75 °FBroken clouds.10 mph57%29.92 "HgN/A
7:30 PM73 °FBroken clouds.10 mph61%29.95 "HgN/A
7:00 PM73 °FBroken clouds.10 mph61%29.95 "HgN/A
6:30 PM72 °FBroken clouds.13 mph65%29.98 "HgN/A
6:00 PM72 °FBroken clouds.13 mph65%29.98 "HgN/A
5:30 PM72 °FPartly sunny.13 mph69%29.98 "HgN/A
5:00 PM66 °FSprinkles. Mostly cloudy.10 mph73%30.01 "HgN/A
4:30 PM73 °FMostly cloudy.6 mph50%30.04 "HgN/A
4:00 PM73 °FMostly cloudy.6 mph47%30.04 "HgN/A
Weather by CustomWeather, © 2014

See weather overviewHow to use our weather pages